COSMOS 1924

Satellite information

Favourite Embed

Satellite Type and Status

PAYLOADIN ORBIT

Key statistics

Satellite COSMOS 1924 at a glance.

Uptime

13750

Days in orbit

Revolutions

≈ 12.4

Per day

Orbit

LEO

Low Earth Orbit

Inclination

74.0

Latest

Satellite identification and parameters

Extended collection of information and parameters for COSMOS 1924.

Object identification

Identified? True

Debris? False

Object name: COSMOS 1924

International designator: 1988-016A

Object number (NORAD): 18937

Object ID (CCSDS): 18937

Country: COMMONWEALTH OF INDEPENDENT STATES (CIS)

Current information (Y/N): Y

RCS size: MEDIUM

Orbital parameters

Period: 115.698 minutes

Inclination: 74.0057 deg

SMA: 7865.222 km

Apoapsis: 1514.262 km

Periapsis: 1459.911 km

RAAN: 68.7079 deg

Eccentricy: 0.00345514

Argument of periapsis: 14.5203 deg

Mean anomaly: 357.347 deg

Mean motion: 12.44618624 rev/day

Mean motion (dot): -0.00000016 rev/day2

B* drag term: -0.000003389775 1/REarth

Two-line elements (TLE)

Creation date: Nov. 1, 2025, 7:40 p.m.

Reference frame: TEME

Reference center: EARTH

Epoch: Nov. 1, 2025, 3:32 p.m. UTC

TLE line 0: 0 COSMOS 1924

TLE line 1: 1 18937U 88016A 25305.64727650 -.00000016 00000-0 -33898-5 0 9998

TLE line 2: 2 18937 74.0057 68.7079 0034551 14.5203 357.3470 12.44618624710367

Live tracking on map

Real-time ground track for satellite COSMOS 1924.

In-orbit conjunctions

A list of the most updated potential collisions computed for object COSMOS 1924.

Target Orbit TCA Probability of collision Miss distance Type
COSMOS 1288 LEO 2025-07-18 10:50:21 0.0001049104 309.0 (m) PAYLOAD

Associated space launch

Military communications satellites

COSMOS 1924 was lifted into orbit during the mission ‘Kosmos-3M | Strela-1M 329-336’, on board a Kosmos-3M space rocket.

The launch took place on March 11, 1988, 12:18 a.m. from 132/1 (132L).

For more information about the launch, click the button.

Launch to space Kosmos-3M | Strela-1M 329-336
Kosmos-3M | Strela-1M 329-336

Agency: N/A

Status: Launch Successful

Launch date: March 11, 1988, 12:18 a.m. UTC

Rocket: Kosmos-3M

Launch pad: 132/1 (132L)

Location: Plesetsk Cosmodrome, Russian Federation

...

Latest news about this satellite

There are no fresh news available about this satellite. Check back as we update our databases every day.


Newsletter sign-up

Weekly statistics, charts and insights to help you stay on top of the space industry.